Weather Roundup
Issued by NWS Corpus Christi, TX

Current Version | Previous Version | Text Only | Print | Product List | Glossary On
Versions: 1 2 3 4 5 6 7 8 9 10 11 12 13 14 15 16 17 18 19 20 21 22 23 24 25 26 27 28 29 30 31 32 33 34 35 36 37 38 39 40 41 42 43 44 45 46 47 48 49 50
000
ASUS44 KCRP 300910
HRRCRP

SOUTH TEXAS REGIONAL WEATHER ROUNDUP
NATIONAL WEATHER SERVICE CORPUS CHRISTI TX
400 AM CDT WED JUL 30 2014


TXZ229>244-301000-
...CORPUS CHRISTI AREA OBSERVATIONS...

CITY           SKY/WX    TMP DP  RH WIND       PRES   REMARKS
CORPUS CHRISTI PTCLDY    74  71  91 S5        30.02S
NAS CORPUS CHR CLEAR     80  76  87 S9        30.02S
ROCKPORT       PTCLDY    80  75  84 S6        30.01F
KINGSVILLE NAS CLEAR     75  74  96 S5        30.02S
ALICE          CLEAR     76  74  93 S7        30.02S
FALFURRIAS     CLEAR     59  32  35 S3        30.02S
$$

...VICTORIA AREA OBSERVATIONS...

CITY           SKY/WX    TMP DP  RH WIND       PRES   REMARKS
VICTORIA       CLEAR     77  74  90 E3        30.04S
BEEVILLE       FAIR      74  74 100 CALM      30.03S
PLEASANTON     CLEAR     76  72  87 SE6       30.03F
SAN ANTONIO    PTCLDY    77  71  82 S7        30.05F
$$

...LAREDO AREA OBSERVATIONS...

CITY           SKY/WX    TMP DP  RH WIND       PRES   REMARKS
LAREDO         CLEAR     81  71  71 S15       30.03F
COTULLA        CLEAR     78  67  68 SE9       30.02R
DEL RIO        CLEAR     82  65  56 SE8       29.99S
MCALLEN        CLEAR     78  74  87 SE7       30.03S
HEBBRONVILLE   PTCLDY    77  73  86 S8        30.04S
$$

...OTHER TEXAS OBSERVATIONS...

CITY           SKY/WX    TMP DP  RH WIND       PRES   REMARKS
BROWNSVILLE    MOCLDY    75  73  94 E3        30.04S
HOUSTON        PTCLDY    74  72  93 CALM      30.04S
COL. STATION   CLEAR     75  73  93 S3        30.04F
AUSTIN         PTCLDY    73  69  87 SE5       30.03F
WACO           PTCLDY    75  69  81 SE9       30.04S
FORT WORTH     MOCLDY    76  65  68 SE6       30.02S
WICHITA FALLS  RAIN      70  62  76 CALM      30.07R
LUBBOCK        CLOUDY    71  64  78 S12       30.07F
EL PASO        PTCLDY    77  67  71 N3        30.06F
$$

...MARINE OBSERVATIONS...

STATION/POSITION TIME  SKY/WX   TEMP    WIND        PRES    VSBY  WAVE   SWELL
                                AIR SEA DIR/SP/G                  HT/PER HT/PER
                 (UTC)          (F)     (DEG/KT/KT) (MB)    (MI)  (FT/S) (FT/S)
PORT ARANSAS     0900            79 80  200/  8/  9 1017.2S
BUOY 90 E PORT A 0900            83 84  170/  6/  6 1017.3R         1/ 5   2/ 5
BUOY 45 SE BAFFI 0900            83 84  190/ 16/ 17 1015.9F         2/ 3
BUOY 200 E PT IS 0900            83 86  150/  2/  4 1016.9F         1
BUOY 15 E GALVES NOT AVBL
$$


USA.gov is the U.S. government's official web portal to all federal, state and local government web resources and services.